Location: Enikep?du
(16.5133°N, 80.7066°E)
Time: 01:50:04
(UTC+00:00)

Cosmos 2219 - Pass Details

Date: 20 January 2020
Orbit: 833 x 860 km, 71.1° (Epoch: 19 February)

Event Time Altitude Azimuth Distance (km) Brightness Sun altitude
Exits shadow 00:17:43 14° 312° (NW) 2,221 4.8 -12.5°
Maximum altitude 00:21:50 31° 257° (WSW) 1,466 4.0 -11.6°
Drops below altitude 10° 00:26:47 10° 197° (SSW) 2,487 5.7 -10.4°
Sets 00:29:31 0° 186° (S) 3,423 6.5 -9.8°
